Home > Weather > Clarksville > Past weeks

Flag for USA Past Weather in Clarksville, Tennessee, USA — Yesterday and Last 2 Weeks

Now
81 °F

Sunny.


Feels Like: 85 °F
Forecast: 67 / 85 °F
Wind: 10 mph from West

Location: Outlaw Field

Current Time: Jul 1, 2016 at 12:06:19 PM

Latest Report: Jul 1, 2016 at 10:52 AM


Visibility: 10 mi

Pressure: 29.98 "Hg

Humidity: 69%

Dew Point: 70 °F

Location of ClarksvilleLocation

Past Weather in Clarksville — Graph

°F

Clarksville Temperature Yesterday

Maximum temperature yesterday: 85 °F (at 3:52 PM)
Minimum temperature yesterday: 56 °F (at 5:52 AM)
Average temperature yesterday: 73 °F

High & Low Weather Summary for the Past Weeks

 TemperatureHumidityPressure
High95 °F (Jun 16, 2:52 PM)100% (Jun 28, 4:03 AM)30.29 "Hg (Jun 28, 4:03 AM)
Low56 °F (Jun 30, 5:52 AM)34% (Jun 24, 5:52 PM)29.80 "Hg (Jun 16, 10:52 PM)
Average79 °F71%30.03 "Hg
* Reported Jun 16 10:52 AM — Jul 1 10:52 AM, Clarksville, Weather by CustomWeather, © 2016

Note: Actual official high and low records may vary slightly from our data, if they occured in-between our weather recording intervals... More about our weather records

Advertising

Clarksville Weather History for the Previous 24 Hours

Scroll right to see more
 ConditionsComfort  
Time TempWeatherWind HumidityBarometerVisibility
10:52 AM
Fri, Jul 1
81 °FSunny.10 mph69%29.98 "Hg10 mi
9:52 AM77 °FPassing clouds.10 mph71%29.98 "Hg10 mi
8:52 AM74 °FSunny.9 mph82%29.98 "Hg10 mi
7:52 AM69 °FScattered clouds.9 mph90%29.98 "Hg10 mi
6:52 AM68 °FLight rain. Broken clouds.5 mph90%29.99 "Hg10 mi
5:52 AM69 °FOvercast.10 mph79%29.98 "Hg10 mi
4:52 AM67 °FClear.No wind90%29.94 "Hg10 mi
3:52 AM67 °FClear.No wind90%29.93 "Hg10 mi
2:52 AM67 °FPassing clouds.No wind90%29.94 "Hg10 mi
1:52 AM70 °FClear.3 mph81%29.95 "Hg10 mi
12:52 AM68 °FClear.3 mph87%29.94 "Hg10 mi
11:52 PM
Thu, Jun 30
71 °FClear.3 mph81%29.95 "Hg10 mi
10:52 PM72 °FClear.No wind81%29.98 "Hg10 mi
9:52 PM75 °FClear.No wind69%29.98 "Hg10 mi
8:52 PM74 °FClear.No wind71%29.96 "Hg10 mi
7:52 PM77 °FSunny.3 mph64%29.94 "Hg10 mi
6:52 PM81 °FSunny.3 mph51%29.95 "Hg10 mi
5:52 PM84 °FSunny.6 mph43%29.96 "Hg10 mi
4:52 PM84 °FSunny.No wind38%29.97 "Hg10 mi
3:52 PM85 °FSunny.N/A37%29.98 "Hg10 mi
2:52 PM84 °FSunny.5 mph38%30.00 "Hg10 mi
1:52 PM83 °FSunny.3 mph41%30.01 "Hg10 mi
12:52 PM82 °FSunny.6 mph40%30.01 "Hg10 mi
Weather by CustomWeather, © 2016

See weather overviewHow to use our weather pages